Year,Month,Day,Hour,Minute,Value (Times are PST for windspeed in km/hr)
2013,09,28,00,00,0.00
2013,09,28,00,01,0.00
2013,09,28,00,02,0.00
2013,09,28,00,03,0.00
2013,09,28,00,04,0.00
2013,09,28,00,05,0.00
2013,09,28,00,06,0.00
2013,09,28,00,07,0.00
2013,09,28,00,08,0.00
2013,09,28,00,09,0.00
2013,09,28,00,10,0.00
2013,09,28,00,11,0.00
2013,09,28,00,12,0.10
2013,09,28,00,13,1.20
2013,09,28,00,14,1.20
2013,09,28,00,15,0.30
2013,09,28,00,16,0.10
2013,09,28,00,17,0.00
2013,09,28,00,18,0.00
2013,09,28,00,19,0.00
2013,09,28,00,20,0.00
2013,09,28,00,21,0.00
2013,09,28,00,22,0.00
2013,09,28,00,23,0.00
2013,09,28,00,24,0.00
2013,09,28,00,25,0.10
2013,09,28,00,26,0.00
2013,09,28,00,27,0.00
2013,09,28,00,28,0.00
2013,09,28,00,29,0.00
2013,09,28,00,30,0.00
2013,09,28,00,31,0.10
2013,09,28,00,32,1.50
2013,09,28,00,33,1.10
2013,09,28,00,34,0.10
2013,09,28,00,35,0.00
2013,09,28,00,36,0.20
2013,09,28,00,37,0.20
2013,09,28,00,38,0.00
2013,09,28,00,39,0.00
2013,09,28,00,40,0.00
2013,09,28,00,41,0.00
2013,09,28,00,42,0.00
2013,09,28,00,43,0.00
2013,09,28,00,44,0.30
2013,09,28,00,45,0.10
2013,09,28,00,46,0.50
2013,09,28,00,47,0.00
2013,09,28,00,48,0.00
2013,09,28,00,49,0.10
2013,09,28,00,50,0.00
2013,09,28,00,51,0.00
2013,09,28,00,52,0.00
2013,09,28,00,53,0.00
2013,09,28,00,54,0.00
2013,09,28,00,55,0.00
2013,09,28,00,56,0.00
2013,09,28,00,57,0.20
2013,09,28,00,58,0.20
2013,09,28,00,59,0.50
2013,09,28,01,00,1.30
2013,09,28,01,01,0.20
2013,09,28,01,02,0.20
2013,09,28,01,03,0.30
2013,09,28,01,04,0.30
2013,09,28,01,05,1.30
2013,09,28,01,06,1.60
2013,09,28,01,07,0.20
2013,09,28,01,08,0.00
2013,09,28,01,09,0.00
2013,09,28,01,10,0.00
2013,09,28,01,11,0.00
2013,09,28,01,12,1.40
2013,09,28,01,13,1.20
2013,09,28,01,14,0.40
2013,09,28,01,15,0.00
2013,09,28,01,16,0.10
2013,09,28,01,17,0.00
2013,09,28,01,18,0.00
2013,09,28,01,19,0.00
2013,09,28,01,20,0.00
2013,09,28,01,21,0.00
2013,09,28,01,22,0.00
2013,09,28,01,23,0.00
2013,09,28,01,24,0.00
2013,09,28,01,25,0.00
2013,09,28,01,26,0.00
2013,09,28,01,27,0.00
2013,09,28,01,28,0.00
2013,09,28,01,29,0.00
2013,09,28,01,30,0.00
2013,09,28,01,31,0.00
2013,09,28,01,32,0.00
2013,09,28,01,33,0.00
2013,09,28,01,34,0.00
2013,09,28,01,35,0.00
2013,09,28,01,36,0.00
2013,09,28,01,37,0.10
2013,09,28,01,38,0.00
2013,09,28,01,39,0.00
2013,09,28,01,40,0.00
2013,09,28,01,41,0.00
2013,09,28,01,42,0.00
2013,09,28,01,43,0.00
2013,09,28,01,44,0.00
2013,09,28,01,45,0.00
2013,09,28,01,46,0.00
2013,09,28,01,47,0.00
2013,09,28,01,48,0.00
2013,09,28,01,49,0.00
2013,09,28,01,50,0.10
2013,09,28,01,51,0.00
2013,09,28,01,52,1.10
2013,09,28,01,53,1.50
2013,09,28,01,54,0.80
2013,09,28,01,55,0.00
2013,09,28,01,56,0.00
2013,09,28,01,57,0.00
2013,09,28,01,58,0.00
2013,09,28,01,59,0.20
2013,09,28,02,00,1.20
2013,09,28,02,01,1.60
2013,09,28,02,02,0.20
2013,09,28,02,03,0.00
2013,09,28,02,04,0.10
2013,09,28,02,05,0.00
2013,09,28,02,06,0.00
2013,09,28,02,07,0.00
2013,09,28,02,08,0.00
2013,09,28,02,09,0.20
2013,09,28,02,10,0.50
2013,09,28,02,11,0.10
2013,09,28,02,12,0.40
2013,09,28,02,13,0.30
2013,09,28,02,14,0.00
2013,09,28,02,15,0.00
2013,09,28,02,16,0.00
2013,09,28,02,17,0.10
2013,09,28,02,18,0.90
2013,09,28,02,19,0.10
2013,09,28,02,20,0.10
2013,09,28,02,21,0.10
2013,09,28,02,22,0.00
2013,09,28,02,23,0.00
2013,09,28,02,24,0.00
2013,09,28,02,25,0.00
2013,09,28,02,26,0.10
2013,09,28,02,27,0.10
2013,09,28,02,28,0.00
2013,09,28,02,29,0.20
2013,09,28,02,30,0.70
2013,09,28,02,31,0.10
2013,09,28,02,32,0.00
2013,09,28,02,33,0.00
2013,09,28,02,34,0.00
2013,09,28,02,35,0.00
2013,09,28,02,36,0.00
2013,09,28,02,37,0.10
2013,09,28,02,38,0.30
2013,09,28,02,39,0.00
2013,09,28,02,40,0.00
2013,09,28,02,41,0.00
2013,09,28,02,42,0.00
2013,09,28,02,43,0.00
2013,09,28,02,44,0.00
2013,09,28,02,45,0.00
2013,09,28,02,46,0.10
2013,09,28,02,47,0.00
2013,09,28,02,48,0.00
2013,09,28,02,49,0.10
2013,09,28,02,50,0.20
2013,09,28,02,51,0.90
2013,09,28,02,52,0.40
2013,09,28,02,53,2.10
2013,09,28,02,54,2.10
2013,09,28,02,55,2.90
2013,09,28,02,56,2.70
2013,09,28,02,57,1.50
2013,09,28,02,58,0.50
2013,09,28,02,59,0.10
2013,09,28,03,00,0.20
2013,09,28,03,01,0.00
2013,09,28,03,02,0.00
2013,09,28,03,03,0.00
2013,09,28,03,04,0.00
2013,09,28,03,05,0.00
2013,09,28,03,06,0.00
2013,09,28,03,07,0.00
2013,09,28,03,08,0.00
2013,09,28,03,09,0.00
2013,09,28,03,10,0.00
2013,09,28,03,11,0.00
2013,09,28,03,12,0.00
2013,09,28,03,13,0.00
2013,09,28,03,14,0.20
2013,09,28,03,15,1.40
2013,09,28,03,16,0.50
2013,09,28,03,17,0.00
2013,09,28,03,18,0.80
2013,09,28,03,19,0.90
2013,09,28,03,20,1.10
2013,09,28,03,21,1.60
2013,09,28,03,22,2.40
2013,09,28,03,23,2.80
2013,09,28,03,24,0.80
2013,09,28,03,25,0.30
2013,09,28,03,26,0.00
2013,09,28,03,27,0.00
2013,09,28,03,28,0.00
2013,09,28,03,29,0.00
2013,09,28,03,30,0.00
2013,09,28,03,31,0.00
2013,09,28,03,32,0.00
2013,09,28,03,33,0.00
2013,09,28,03,34,0.20
2013,09,28,03,35,1.00
2013,09,28,03,36,1.80
2013,09,28,03,37,0.60
2013,09,28,03,38,0.20
2013,09,28,03,39,0.00
2013,09,28,03,40,0.00
2013,09,28,03,41,0.00
2013,09,28,03,42,0.00
2013,09,28,03,43,0.00
2013,09,28,03,44,0.00
2013,09,28,03,45,0.00
2013,09,28,03,46,0.50
2013,09,28,03,47,0.00
2013,09,28,03,48,0.20
2013,09,28,03,49,0.20
2013,09,28,03,50,1.30
2013,09,28,03,51,1.20
2013,09,28,03,52,1.50
2013,09,28,03,53,1.10
2013,09,28,03,54,2.00
2013,09,28,03,55,0.20
2013,09,28,03,56,0.00
2013,09,28,03,57,0.20
2013,09,28,03,58,0.00
2013,09,28,03,59,0.50
2013,09,28,04,00,0.00
2013,09,28,04,01,0.00
2013,09,28,04,02,0.00
2013,09,28,04,03,1.00
2013,09,28,04,04,0.80
2013,09,28,04,05,0.20
2013,09,28,04,06,0.00
2013,09,28,04,07,0.00
2013,09,28,04,08,0.20
2013,09,28,04,09,0.50
2013,09,28,04,10,0.60
2013,09,28,04,11,2.30
2013,09,28,04,12,1.00
2013,09,28,04,13,0.20
2013,09,28,04,14,0.90
2013,09,28,04,15,1.40
2013,09,28,04,16,0.30
2013,09,28,04,17,0.00
2013,09,28,04,18,0.00
2013,09,28,04,19,0.00
2013,09,28,04,20,0.00
2013,09,28,04,21,0.60
2013,09,28,04,22,0.60
2013,09,28,04,23,0.20
2013,09,28,04,24,0.20
2013,09,28,04,25,1.10
2013,09,28,04,26,1.50
2013,09,28,04,27,0.60
2013,09,28,04,28,2.20
2013,09,28,04,29,2.50
2013,09,28,04,30,2.40
2013,09,28,04,31,2.50
2013,09,28,04,32,3.50
2013,09,28,04,33,2.40
2013,09,28,04,34,2.60
2013,09,28,04,35,1.40
2013,09,28,04,36,0.60
2013,09,28,04,37,0.00
2013,09,28,04,38,0.00
2013,09,28,04,39,0.00
2013,09,28,04,40,0.00
2013,09,28,04,41,0.00
2013,09,28,04,42,0.00
2013,09,28,04,43,0.00
2013,09,28,04,44,0.00
2013,09,28,04,45,0.00
2013,09,28,04,46,0.00
2013,09,28,04,47,0.00
2013,09,28,04,48,1.30
2013,09,28,04,49,2.40
2013,09,28,04,50,1.90
2013,09,28,04,51,0.10
2013,09,28,04,52,0.10
2013,09,28,04,53,0.10
2013,09,28,04,54,0.60
2013,09,28,04,55,1.70
2013,09,28,04,56,3.30
2013,09,28,04,57,2.20
2013,09,28,04,58,2.00
2013,09,28,04,59,1.20
2013,09,28,05,00,2.40
2013,09,28,05,01,2.90
2013,09,28,05,02,3.50
2013,09,28,05,03,2.60
2013,09,28,05,04,2.10
2013,09,28,05,05,0.20
2013,09,28,05,06,1.40
2013,09,28,05,07,1.20
2013,09,28,05,08,3.20
2013,09,28,05,09,2.20
2013,09,28,05,10,2.80
2013,09,28,05,11,2.60
2013,09,28,05,12,3.60
2013,09,28,05,13,3.20
2013,09,28,05,14,1.60
2013,09,28,05,15,1.90
2013,09,28,05,16,1.70
2013,09,28,05,17,1.50
2013,09,28,05,18,3.30
2013,09,28,05,19,3.10
2013,09,28,05,20,1.60
2013,09,28,05,21,2.50
2013,09,28,05,22,2.80
2013,09,28,05,23,2.80
2013,09,28,05,24,2.30
2013,09,28,05,25,3.00
2013,09,28,05,26,3.70
2013,09,28,05,27,2.90
2013,09,28,05,28,3.60
2013,09,28,05,29,2.90
2013,09,28,05,30,2.20
2013,09,28,05,31,2.60
2013,09,28,05,32,1.80
2013,09,28,05,33,1.50
2013,09,28,05,34,1.70
2013,09,28,05,35,1.10
2013,09,28,05,36,1.00
2013,09,28,05,37,2.70
2013,09,28,05,38,3.40
2013,09,28,05,39,3.40
2013,09,28,05,40,3.10
2013,09,28,05,41,3.60
2013,09,28,05,42,3.00
2013,09,28,05,43,1.30
2013,09,28,05,44,1.50
2013,09,28,05,45,1.20
2013,09,28,05,46,3.10
2013,09,28,05,47,4.30
2013,09,28,05,48,3.00
2013,09,28,05,49,2.60
2013,09,28,05,50,2.20
2013,09,28,05,51,3.50
2013,09,28,05,52,4.70
2013,09,28,05,53,6.30
2013,09,28,05,54,7.90
2013,09,28,05,55,7.40
2013,09,28,05,56,8.30
2013,09,28,05,57,6.40
2013,09,28,05,58,6.70
2013,09,28,05,59,6.90
2013,09,28,06,00,3.50
2013,09,28,06,01,2.70
2013,09,28,06,02,5.20
2013,09,28,06,03,6.90
2013,09,28,06,04,3.30
2013,09,28,06,05,3.00
2013,09,28,06,06,2.10
2013,09,28,06,07,4.40
2013,09,28,06,08,4.10
2013,09,28,06,09,2.10
2013,09,28,06,10,1.30
2013,09,28,06,11,5.00
2013,09,28,06,12,4.90
2013,09,28,06,13,6.60
2013,09,28,06,14,3.70
2013,09,28,06,15,3.50
2013,09,28,06,16,7.00
2013,09,28,06,17,8.20
2013,09,28,06,18,7.60
2013,09,28,06,19,5.40
2013,09,28,06,20,2.90
2013,09,28,06,21,6.40
2013,09,28,06,22,5.60
2013,09,28,06,23,6.00
2013,09,28,06,24,5.50
2013,09,28,06,25,13.00
2013,09,28,06,26,10.00
2013,09,28,06,27,7.10
2013,09,28,06,28,5.90
2013,09,28,06,29,9.10
2013,09,28,06,30,10.60
2013,09,28,06,31,10.90
2013,09,28,06,32,8.90
2013,09,28,06,33,8.30
2013,09,28,06,34,8.00
2013,09,28,06,35,16.20
2013,09,28,06,36,12.30
2013,09,28,06,37,13.30
2013,09,28,06,38,6.70
2013,09,28,06,39,7.70
2013,09,28,06,40,6.10
2013,09,28,06,41,6.50
2013,09,28,06,42,10.40
2013,09,28,06,43,6.70
2013,09,28,06,44,7.60
2013,09,28,06,45,12.20
2013,09,28,06,46,8.00
2013,09,28,06,47,6.30
2013,09,28,06,48,8.40
2013,09,28,06,49,8.60
2013,09,28,06,50,8.00
2013,09,28,06,51,7.80
2013,09,28,06,52,10.00
2013,09,28,06,53,9.40
2013,09,28,06,54,9.50
2013,09,28,06,55,8.20
2013,09,28,06,56,9.70
2013,09,28,06,57,11.00
2013,09,28,06,58,9.00
2013,09,28,06,59,13.00
2013,09,28,07,00,14.40
2013,09,28,07,01,9.60
2013,09,28,07,02,5.10
2013,09,28,07,03,11.00
2013,09,28,07,04,8.90
2013,09,28,07,05,7.20
2013,09,28,07,06,13.40
2013,09,28,07,07,15.50
2013,09,28,07,08,8.10
2013,09,28,07,09,6.90
2013,09,28,07,10,13.20
2013,09,28,07,11,6.40
2013,09,28,07,12,14.90
2013,09,28,07,13,8.60
2013,09,28,07,14,5.10
2013,09,28,07,15,7.90
2013,09,28,07,16,14.10
2013,09,28,07,17,16.90
2013,09,28,07,18,7.20
2013,09,28,07,19,7.00
2013,09,28,07,20,11.20
2013,09,28,07,21,11.50
2013,09,28,07,22,10.00
2013,09,28,07,23,9.90
2013,09,28,07,24,11.60
2013,09,28,07,25,12.90
2013,09,28,07,26,8.50
2013,09,28,07,27,11.60
2013,09,28,07,28,13.30
2013,09,28,07,29,9.30
2013,09,28,07,30,9.20
2013,09,28,07,31,14.00
2013,09,28,07,32,13.80
2013,09,28,07,33,10.00
2013,09,28,07,34,17.10
2013,09,28,07,35,11.00
2013,09,28,07,36,16.00
2013,09,28,07,37,14.60
2013,09,28,07,38,13.70
2013,09,28,07,39,14.60
2013,09,28,07,40,14.00
2013,09,28,07,41,20.00
2013,09,28,07,42,19.60
2013,09,28,07,43,22.50
2013,09,28,07,44,20.30
2013,09,28,07,45,18.30
2013,09,28,07,46,14.00
2013,09,28,07,47,11.40
2013,09,28,07,48,21.90
2013,09,28,07,49,28.80
2013,09,28,07,50,19.90
2013,09,28,07,51,23.90
2013,09,28,07,52,18.90
2013,09,28,07,53,18.00
2013,09,28,07,54,20.20
2013,09,28,07,55,19.30
2013,09,28,07,56,17.60
2013,09,28,07,57,16.10
2013,09,28,07,58,17.90
2013,09,28,07,59,16.40
2013,09,28,08,00,21.70
2013,09,28,08,01,21.00
2013,09,28,08,02,20.00
2013,09,28,08,03,21.20
2013,09,28,08,04,20.90
2013,09,28,08,05,18.60
2013,09,28,08,06,31.20
2013,09,28,08,07,22.80
2013,09,28,08,08,11.10
2013,09,28,08,09,15.60
2013,09,28,08,10,19.40
2013,09,28,08,11,18.50
2013,09,28,08,12,19.10
2013,09,28,08,13,22.90
2013,09,28,08,14,23.60
2013,09,28,08,15,14.90
2013,09,28,08,16,14.80
2013,09,28,08,17,16.00
2013,09,28,08,18,18.70
2013,09,28,08,19,15.70
2013,09,28,08,20,20.20
2013,09,28,08,21,22.30
2013,09,28,08,22,14.20
2013,09,28,08,23,16.30
2013,09,28,08,24,15.30
2013,09,28,08,25,14.90
2013,09,28,08,26,20.20
2013,09,28,08,27,17.30
2013,09,28,08,28,12.10
2013,09,28,08,29,14.00
2013,09,28,08,30,10.70
2013,09,28,08,31,13.70
2013,09,28,08,32,16.10
2013,09,28,08,33,15.90
2013,09,28,08,34,20.10
2013,09,28,08,35,16.20
2013,09,28,08,36,17.30
2013,09,28,08,37,15.20
2013,09,28,08,38,15.50
2013,09,28,08,39,17.20
2013,09,28,08,40,16.60
2013,09,28,08,41,16.70
2013,09,28,08,42,14.60
2013,09,28,08,43,17.50
2013,09,28,08,44,20.10
2013,09,28,08,45,18.50
2013,09,28,08,46,19.10
2013,09,28,08,47,12.30
2013,09,28,08,48,17.80
2013,09,28,08,49,17.90
2013,09,28,08,50,17.10
2013,09,28,08,51,13.50
2013,09,28,08,52,8.40
2013,09,28,08,53,12.00
2013,09,28,08,54,14.80
2013,09,28,08,55,15.30
2013,09,28,08,56,15.20
2013,09,28,08,57,13.20
2013,09,28,08,58,10.50
2013,09,28,08,59,9.20
2013,09,28,09,00,8.20
2013,09,28,09,01,14.00
2013,09,28,09,02,13.80
2013,09,28,09,03,9.20
2013,09,28,09,04,8.10
2013,09,28,09,05,11.80
2013,09,28,09,06,8.60
2013,09,28,09,07,7.50
2013,09,28,09,08,3.10
2013,09,28,09,09,6.60
2013,09,28,09,10,6.90
2013,09,28,09,11,4.70
2013,09,28,09,12,3.50
2013,09,28,09,13,2.10
2013,09,28,09,14,4.50
2013,09,28,09,15,2.80
2013,09,28,09,16,4.70
2013,09,28,09,17,1.80
2013,09,28,09,18,7.00
2013,09,28,09,19,6.80
2013,09,28,09,20,7.70
2013,09,28,09,21,7.50
2013,09,28,09,22,6.80
2013,09,28,09,23,6.40
2013,09,28,09,24,9.00
2013,09,28,09,25,5.70
2013,09,28,09,26,4.20
2013,09,28,09,27,5.00
2013,09,28,09,28,4.00
2013,09,28,09,29,8.00
2013,09,28,09,30,6.40
2013,09,28,09,31,6.80
2013,09,28,09,32,6.70
2013,09,28,09,33,9.00
2013,09,28,09,34,10.20
2013,09,28,09,35,9.10
2013,09,28,09,36,6.70
2013,09,28,09,37,7.70
2013,09,28,09,38,6.90
2013,09,28,09,39,8.10
2013,09,28,09,40,6.10
2013,09,28,09,41,6.50
2013,09,28,09,42,7.70
2013,09,28,09,43,5.40
2013,09,28,09,44,6.80
2013,09,28,09,45,3.30
2013,09,28,09,46,6.30
2013,09,28,09,47,6.30
2013,09,28,09,48,3.80
2013,09,28,09,49,4.70
2013,09,28,09,50,3.20
2013,09,28,09,51,3.70
2013,09,28,09,52,3.10
2013,09,28,09,53,2.10
2013,09,28,09,54,0.60
2013,09,28,09,55,0.20
2013,09,28,09,56,0.00
2013,09,28,09,57,2.30
2013,09,28,09,58,1.60
2013,09,28,09,59,3.70
2013,09,28,10,00,5.10
2013,09,28,10,01,3.90
2013,09,28,10,02,1.80
2013,09,28,10,03,3.40
2013,09,28,10,04,1.00
2013,09,28,10,05,1.80
2013,09,28,10,06,0.20
2013,09,28,10,07,0.00
2013,09,28,10,08,1.50
2013,09,28,10,09,2.30
2013,09,28,10,10,2.20
2013,09,28,10,11,0.90
2013,09,28,10,12,3.80
2013,09,28,10,13,5.40
2013,09,28,10,14,4.70
2013,09,28,10,15,1.00
2013,09,28,10,16,1.20
2013,09,28,10,17,2.70
2013,09,28,10,18,4.60
2013,09,28,10,19,1.00
2013,09,28,10,20,0.00
2013,09,28,10,21,0.00
2013,09,28,10,22,0.00
2013,09,28,10,23,0.00
2013,09,28,10,24,0.20
2013,09,28,10,25,2.50
2013,09,28,10,26,4.80
2013,09,28,10,27,2.20
2013,09,28,10,28,1.30
2013,09,28,10,29,0.30
2013,09,28,10,30,2.10
2013,09,28,10,31,0.10
2013,09,28,10,32,1.40
2013,09,28,10,33,0.40
2013,09,28,10,34,0.20
2013,09,28,10,35,0.00
2013,09,28,10,36,0.20
2013,09,28,10,37,0.10
2013,09,28,10,38,0.00
2013,09,28,10,39,0.10
2013,09,28,10,40,0.00
2013,09,28,10,41,0.20
2013,09,28,10,42,0.60
2013,09,28,10,43,0.40
2013,09,28,10,44,3.70
2013,09,28,10,45,3.30
2013,09,28,10,46,1.70
2013,09,28,10,47,2.00
2013,09,28,10,48,2.60
2013,09,28,10,49,1.60
2013,09,28,10,50,4.70
2013,09,28,10,51,4.60
2013,09,28,10,52,10.50
2013,09,28,10,53,9.30
2013,09,28,10,54,7.60
2013,09,28,10,55,5.50
2013,09,28,10,56,6.70
2013,09,28,10,57,5.90
2013,09,28,10,58,6.50
2013,09,28,10,59,5.10
2013,09,28,11,00,8.40
2013,09,28,11,01,6.00
2013,09,28,11,02,3.10
2013,09,28,11,03,1.60
2013,09,28,11,04,1.60
2013,09,28,11,05,4.40
2013,09,28,11,06,2.80
2013,09,28,11,07,1.60
2013,09,28,11,08,5.10
2013,09,28,11,09,8.80
2013,09,28,11,10,5.30
2013,09,28,11,11,3.00
2013,09,28,11,12,1.00
2013,09,28,11,13,0.00
2013,09,28,11,14,2.80
2013,09,28,11,15,8.20
2013,09,28,11,16,6.30
2013,09,28,11,17,4.70
2013,09,28,11,18,2.50
2013,09,28,11,19,0.80
2013,09,28,11,20,3.90
2013,09,28,11,21,3.80
2013,09,28,11,22,2.50
2013,09,28,11,23,1.80
2013,09,28,11,24,4.30
2013,09,28,11,25,3.80
2013,09,28,11,26,3.00
2013,09,28,11,27,3.90
2013,09,28,11,28,6.00
2013,09,28,11,29,7.00
2013,09,28,11,30,5.00
2013,09,28,11,31,4.10
2013,09,28,11,32,5.70
2013,09,28,11,33,5.30
2013,09,28,11,34,3.90
2013,09,28,11,35,2.20
2013,09,28,11,36,3.10
2013,09,28,11,37,5.10
2013,09,28,11,38,4.70
2013,09,28,11,39,3.20
2013,09,28,11,40,3.70
2013,09,28,11,41,6.20
2013,09,28,11,42,7.10
2013,09,28,11,43,6.00
2013,09,28,11,44,4.70
2013,09,28,11,45,5.60
2013,09,28,11,46,5.50
2013,09,28,11,47,7.00
2013,09,28,11,48,6.20
2013,09,28,11,49,8.10
2013,09,28,11,50,7.20
2013,09,28,11,51,5.80
2013,09,28,11,52,5.40
2013,09,28,11,53,5.40
2013,09,28,11,54,5.30
2013,09,28,11,55,3.80
2013,09,28,11,56,3.00
2013,09,28,11,57,3.30
2013,09,28,11,58,3.70
2013,09,28,11,59,4.70
2013,09,28,12,00,4.30
2013,09,28,12,01,6.50
2013,09,28,12,02,6.40
2013,09,28,12,03,7.60
2013,09,28,12,04,5.70
2013,09,28,12,05,4.30
2013,09,28,12,06,6.00
2013,09,28,12,07,9.70
2013,09,28,12,08,8.50
2013,09,28,12,09,7.40
2013,09,28,12,10,8.60
2013,09,28,12,11,5.50
2013,09,28,12,12,5.20
2013,09,28,12,13,6.90
2013,09,28,12,14,6.40
2013,09,28,12,15,9.30
2013,09,28,12,16,7.90
2013,09,28,12,17,4.40
2013,09,28,12,18,2.60
2013,09,28,12,19,4.30
2013,09,28,12,20,6.00
2013,09,28,12,21,2.70
2013,09,28,12,22,3.00
2013,09,28,12,23,2.60
2013,09,28,12,24,5.70
2013,09,28,12,25,5.50
2013,09,28,12,26,4.80
2013,09,28,12,27,5.80
2013,09,28,12,28,5.60
2013,09,28,12,29,7.30
2013,09,28,12,30,3.40
2013,09,28,12,31,7.70
2013,09,28,12,32,2.80
2013,09,28,12,33,4.50
2013,09,28,12,34,3.00
2013,09,28,12,35,2.40
2013,09,28,12,36,0.70
2013,09,28,12,37,0.10
2013,09,28,12,38,1.00
2013,09,28,12,39,2.80
2013,09,28,12,40,1.90
2013,09,28,12,41,4.90
2013,09,28,12,42,3.80
2013,09,28,12,43,1.30
2013,09,28,12,44,0.90
2013,09,28,12,45,0.20
2013,09,28,12,46,0.10
2013,09,28,12,47,0.80
2013,09,28,12,48,0.90
2013,09,28,12,49,1.00
2013,09,28,12,50,1.10
2013,09,28,12,51,0.10
2013,09,28,12,52,0.00
2013,09,28,12,53,1.00
2013,09,28,12,54,0.00
2013,09,28,12,55,0.00
2013,09,28,12,56,0.80
2013,09,28,12,57,1.10
2013,09,28,12,58,1.50
2013,09,28,12,59,0.70
2013,09,28,13,00,1.40
2013,09,28,13,01,2.00
2013,09,28,13,02,4.70
2013,09,28,13,03,3.60
2013,09,28,13,04,3.70
2013,09,28,13,05,5.60
2013,09,28,13,06,7.60
2013,09,28,13,07,10.50
2013,09,28,13,08,11.10
2013,09,28,13,09,12.40
2013,09,28,13,10,14.60
2013,09,28,13,11,13.70
2013,09,28,13,12,16.20
2013,09,28,13,13,10.50
2013,09,28,13,14,12.30
2013,09,28,13,15,9.30
2013,09,28,13,16,7.60
2013,09,28,13,17,5.80
2013,09,28,13,18,5.30
2013,09,28,13,19,3.70
2013,09,28,13,20,4.80
2013,09,28,13,21,2.10
2013,09,28,13,22,2.40
2013,09,28,13,23,1.70
2013,09,28,13,24,0.00
2013,09,28,13,25,0.00
2013,09,28,13,26,0.20
2013,09,28,13,27,0.00
2013,09,28,13,28,0.80
2013,09,28,13,29,3.00
2013,09,28,13,30,2.60
2013,09,28,13,31,3.60
2013,09,28,13,32,2.70
2013,09,28,13,33,6.00
2013,09,28,13,34,3.70
2013,09,28,13,35,6.40
2013,09,28,13,36,6.70
2013,09,28,13,37,1.30
2013,09,28,13,38,0.60
2013,09,28,13,39,0.40
2013,09,28,13,40,1.90
2013,09,28,13,41,3.90
2013,09,28,13,42,5.10
2013,09,28,13,43,9.50
2013,09,28,13,44,7.10
2013,09,28,13,45,7.10
2013,09,28,13,46,5.10
2013,09,28,13,47,3.40
2013,09,28,13,48,5.30
2013,09,28,13,49,6.80
2013,09,28,13,50,8.70
2013,09,28,13,51,7.60
2013,09,28,13,52,6.40
2013,09,28,13,53,6.10
2013,09,28,13,54,3.10
2013,09,28,13,55,1.00
2013,09,28,13,56,2.80
2013,09,28,13,57,0.60
2013,09,28,13,58,1.10
2013,09,28,13,59,3.50
2013,09,28,14,00,6.30
2013,09,28,14,01,4.00
2013,09,28,14,02,4.80
2013,09,28,14,03,6.10
2013,09,28,14,04,7.10
2013,09,28,14,05,7.40
2013,09,28,14,06,6.40
2013,09,28,14,07,5.60
2013,09,28,14,08,7.70
2013,09,28,14,09,9.70
2013,09,28,14,10,9.00
2013,09,28,14,11,8.10
2013,09,28,14,12,9.60
2013,09,28,14,13,10.00
2013,09,28,14,14,11.00
2013,09,28,14,15,8.90
2013,09,28,14,16,10.10
2013,09,28,14,17,7.90
2013,09,28,14,18,11.70
2013,09,28,14,19,17.90
2013,09,28,14,20,11.30
2013,09,28,14,21,14.80
2013,09,28,14,22,16.40
2013,09,28,14,23,14.40
2013,09,28,14,24,8.50
2013,09,28,14,25,7.30
2013,09,28,14,26,8.30
2013,09,28,14,27,9.90
2013,09,28,14,28,9.60
2013,09,28,14,29,6.90
2013,09,28,14,30,8.40
2013,09,28,14,31,9.20
2013,09,28,14,32,8.60
2013,09,28,14,33,12.10
2013,09,28,14,34,8.90
2013,09,28,14,35,12.00
2013,09,28,14,36,7.20
2013,09,28,14,37,12.10
2013,09,28,14,38,12.70
2013,09,28,14,39,8.20
2013,09,28,14,40,5.70
2013,09,28,14,41,2.80
2013,09,28,14,42,9.70
2013,09,28,14,43,7.40
2013,09,28,14,44,8.40
2013,09,28,14,45,6.60
2013,09,28,14,46,8.50
2013,09,28,14,47,9.40
2013,09,28,14,48,13.40
2013,09,28,14,49,10.10
2013,09,28,14,50,7.20
2013,09,28,14,51,13.00
2013,09,28,14,52,7.60
2013,09,28,14,53,8.60
2013,09,28,14,54,5.40
2013,09,28,14,55,4.00
2013,09,28,14,56,5.90
2013,09,28,14,57,4.30
2013,09,28,14,58,9.30
2013,09,28,14,59,12.60
2013,09,28,15,00,7.90
2013,09,28,15,01,4.90
2013,09,28,15,02,7.80
2013,09,28,15,03,5.90
2013,09,28,15,04,6.50
2013,09,28,15,05,6.90
2013,09,28,15,06,12.60
2013,09,28,15,07,8.70
2013,09,28,15,08,7.70
2013,09,28,15,09,10.60
2013,09,28,15,10,8.00
2013,09,28,15,11,9.40
2013,09,28,15,12,10.90
2013,09,28,15,13,11.60
2013,09,28,15,14,10.60
2013,09,28,15,15,8.90
2013,09,28,15,16,6.70
2013,09,28,15,17,10.80
2013,09,28,15,18,7.90
2013,09,28,15,19,7.30
2013,09,28,15,20,4.80
2013,09,28,15,21,7.60
2013,09,28,15,22,4.70
2013,09,28,15,23,5.70
2013,09,28,15,24,4.60
2013,09,28,15,25,6.40
2013,09,28,15,26,6.50
2013,09,28,15,27,5.00
2013,09,28,15,28,4.70
2013,09,28,15,29,4.40
2013,09,28,15,30,4.40
2013,09,28,15,31,1.90
2013,09,28,15,32,0.10
2013,09,28,15,33,2.20
2013,09,28,15,34,0.50
2013,09,28,15,35,2.20
2013,09,28,15,36,3.50
2013,09,28,15,37,5.10
2013,09,28,15,38,5.60
2013,09,28,15,39,4.10
2013,09,28,15,40,5.50
2013,09,28,15,41,7.30
2013,09,28,15,42,5.40
2013,09,28,15,43,7.80
2013,09,28,15,44,7.70
2013,09,28,15,45,5.10
2013,09,28,15,46,0.90
2013,09,28,15,47,3.00
2013,09,28,15,48,3.60
2013,09,28,15,49,4.70
2013,09,28,15,50,4.70
2013,09,28,15,51,6.80
2013,09,28,15,52,5.60
2013,09,28,15,53,5.00
2013,09,28,15,54,5.30
2013,09,28,15,55,2.70
2013,09,28,15,56,3.50
2013,09,28,15,57,3.70
2013,09,28,15,58,3.80
2013,09,28,15,59,5.60
2013,09,28,16,00,6.60
2013,09,28,16,01,4.70
2013,09,28,16,02,6.40
2013,09,28,16,03,15.30
2013,09,28,16,04,11.10
2013,09,28,16,05,5.80
2013,09,28,16,06,7.10
2013,09,28,16,07,8.10
2013,09,28,16,08,6.80
2013,09,28,16,09,7.90
2013,09,28,16,10,7.30
2013,09,28,16,11,8.00
2013,09,28,16,12,6.20
2013,09,28,16,13,6.50
2013,09,28,16,14,7.50
2013,09,28,16,15,13.10
2013,09,28,16,16,7.50
2013,09,28,16,17,12.40
2013,09,28,16,18,12.90
2013,09,28,16,19,18.40
2013,09,28,16,20,14.00
2013,09,28,16,21,10.70
2013,09,28,16,22,9.70
2013,09,28,16,23,8.50
2013,09,28,16,24,8.50
2013,09,28,16,25,10.90
2013,09,28,16,26,9.90
2013,09,28,16,27,14.60
2013,09,28,16,28,12.90
2013,09,28,16,29,10.10
2013,09,28,16,30,13.70
2013,09,28,16,31,7.50
2013,09,28,16,32,9.40
2013,09,28,16,33,16.90
2013,09,28,16,34,14.60
2013,09,28,16,35,12.20
2013,09,28,16,36,13.90
2013,09,28,16,37,11.60
2013,09,28,16,38,11.50
2013,09,28,16,39,10.60
2013,09,28,16,40,10.80
2013,09,28,16,41,11.20
2013,09,28,16,42,15.40
2013,09,28,16,43,16.20
2013,09,28,16,44,12.40
2013,09,28,16,45,12.30
2013,09,28,16,46,13.60
2013,09,28,16,47,13.40
2013,09,28,16,48,10.70
2013,09,28,16,49,11.00
2013,09,28,16,50,19.60
2013,09,28,16,51,13.20
2013,09,28,16,52,9.30
2013,09,28,16,53,10.70
2013,09,28,16,54,12.90
2013,09,28,16,55,12.20
2013,09,28,16,56,14.20
2013,09,28,16,57,9.60
2013,09,28,16,58,10.90
2013,09,28,16,59,8.70
2013,09,28,17,00,10.00
2013,09,28,17,01,14.90
2013,09,28,17,02,8.70
2013,09,28,17,03,10.30
2013,09,28,17,04,19.90
2013,09,28,17,05,12.60
2013,09,28,17,06,11.50
2013,09,28,17,07,15.90
2013,09,28,17,08,17.30
2013,09,28,17,09,13.60
2013,09,28,17,10,12.60
2013,09,28,17,11,13.90
2013,09,28,17,12,10.20
2013,09,28,17,13,10.10
2013,09,28,17,14,11.00
2013,09,28,17,15,10.50
2013,09,28,17,16,10.80
2013,09,28,17,17,9.80
2013,09,28,17,18,10.00
2013,09,28,17,19,8.90
2013,09,28,17,20,8.60
2013,09,28,17,21,9.40
2013,09,28,17,22,7.70
2013,09,28,17,23,8.50
2013,09,28,17,24,10.50
2013,09,28,17,25,14.10
2013,09,28,17,26,9.30
2013,09,28,17,27,10.30
2013,09,28,17,28,14.70
2013,09,28,17,29,14.30
2013,09,28,17,30,16.30
2013,09,28,17,31,16.70
2013,09,28,17,32,11.30
2013,09,28,17,33,11.70
2013,09,28,17,34,9.80
2013,09,28,17,35,7.10
2013,09,28,17,36,10.70
2013,09,28,17,37,13.40
2013,09,28,17,38,15.40
2013,09,28,17,39,11.80
2013,09,28,17,40,12.50
2013,09,28,17,41,10.60
2013,09,28,17,42,13.00
2013,09,28,17,43,6.40
2013,09,28,17,44,11.30
2013,09,28,17,45,9.80
2013,09,28,17,46,6.30
2013,09,28,17,47,9.70
2013,09,28,17,48,6.00
2013,09,28,17,49,10.20
2013,09,28,17,50,9.20
2013,09,28,17,51,9.90
2013,09,28,17,52,7.40
2013,09,28,17,53,7.20
2013,09,28,17,54,8.10
2013,09,28,17,55,7.20
2013,09,28,17,56,10.10